Location: Newsoms
(36.6240°N, 77.1250°W)
Time: 16:25:04
(UTC-04:00)

Daily predictions for brighter satellites

Satellite Brightness Start Highest point End
(mag) Time Altitude Azimuth Time Altitude Azimuth Time Altitude Azimuth
Cosmos 1782 Rocket 3.5 20:16:09 10° S 20:20:28 76° E 20:24:48 10° N
Cosmos 1378 Rocket 3.7 20:16:26 10° N 20:20:54 80° W 20:25:17 10° S
Resurs 01 Rocket 2.1 20:16:44 10° SE 20:20:56 43° ENE 20:25:09 10° N
ERBS 2.3 20:19:40 10° SW 20:23:08 87° SE 20:26:37 10° NE
Cosmos 2322 Rocket 3.2 20:18:40 10° SSE 20:23:13 25° ESE 20:27:46 10° NE
Cosmos 44 4.2 20:20:22 10° N 20:24:12 28° NE 20:28:08 10° ESE
Cosmos 1461 4.1 20:20:30 10° NW 20:24:49 48° WSW 20:29:16 10° S
Cosmos 1939 Rocket 4.4 20:22:15 10° ESE 20:25:04 19° ENE 20:27:51 10° NNE
Cosmos 2263 Rocket 4.1 20:23:16 10° NNE 20:26:10 14° NE 20:29:03 10° E
Cosmos 921 Rocket 2.8 20:22:26 10° S 20:26:36 75° ESE 20:30:46 10° NNE
Envisat 3.6 20:26:21 10° SE 20:31:00 38° ENE 20:35:40 10° N
Okean 1 3.7 20:27:34 10° N 20:31:24 44° E 20:35:12 10° SSE
Meteor 1-20 Rocket 4.2 20:27:11 10° S 20:32:46 88° E 20:38:17 10° N
SL-16 R/B 2.9 20:28:12 10° SSE 20:33:04 30° ESE 20:37:57 10° NE
Cosmos 1441 Rocket 3.1 20:32:22 10° N 20:36:07 88° E 20:39:51 10° S
Cosmos 2151 Rocket 4.2 20:32:10 10° SSE 20:36:07 34° E 20:40:05 10° NNE
Tiangong 1 2.9 20:33:56 10° WNW 20:36:12 22° N 20:38:27 10° NE
Lacrosse 5 rocket 2.3 20:33:51 10° NNW 20:37:07 29° NE 20:40:08 12° ESE
ALOS 4.2 20:33:02 10° SSW 20:37:10 31° W 20:41:19 10° NW
USA 267 3.8 20:31:48 10° SSE 20:38:13 58° SW 20:44:41 10° NW
Helios 1B rocket 3.9 20:36:31 10° NE 20:39:16 17° E 20:41:42 11° SE
Cosmos 1975 Rocket 3.1 20:34:50 10° N 20:39:19 86° E 20:43:45 10° S
Cosmos 405 Rocket 3.8 20:37:32 10° NNW 20:41:14 47° W 20:44:59 10° S
CZ-4C R/B 3.5 20:35:54 10° NW 20:43:11 61° WSW 20:51:05 10° SSE
Cosmos 2026 Rocket 4.1 20:39:11 10° S 20:45:29 89° W 20:51:55 10° N
EXPRESS MD2 3.2 20:45:28 10° WSW 20:47:46 55° NNW 20:51:24 10° NE
Cosmos 1428 Rocket 4.5 20:41:49 10° S 20:48:01 67° E 20:54:14 10° NNE
Cosmos 1655 Rocket 4.0 20:44:12 10° S 20:50:26 76° E 20:56:45 10° N
GPS 2-05 Rocket1 2.7 20:48:12 10° WSW 20:51:34 70° S 20:53:52 18° E
Cosmos 1633 3.1 20:53:09 10° SSW 20:56:43 61° W 21:00:18 10° N
Cosmos 2360 Rocket 3.5 20:56:27 17° ESE 20:58:04 19° E 21:01:50 10° ENE
Cosmos 1980 Rocket 3.2 20:53:25 10° SW 20:58:50 50° WNW 21:04:17 10° N
YAOGAN 6 3.5 20:57:34 20° ESE 20:59:11 30° ENE 21:02:18 10° NNE
Cosmos 839 Rocket 4.1 20:52:51 10° SSW 20:59:14 82° WNW 21:05:28 10° NNE
ATLAS 2AS CENTAUR R/B 3.4 20:54:13 10° S 21:01:05 40° ESE 21:08:22 10° NE
SJ-11-01 4.5 20:58:14 14° SE 21:02:05 51° ENE 21:06:36 10° N
BREEZE M DEB (TANK) 4.0 20:50:05 10° SSW 21:02:19 41° SSE 21:05:33 15° E
Cosmos 1452 Rocket 3.7 20:57:30 10° SSW 21:02:46 76° WNW 21:08:05 10° NNE
Meteor 1-13 Rocket 4.4 20:57:35 10° N 21:03:29 58° E 21:08:49 12° SSE
Cosmos 1536 Rocket 3.9 20:59:23 10° N 21:03:32 44° E 21:06:16 19° SE
USA 186 2.3 21:01:27 10° S 21:04:42 60° W 21:08:04 10° NNW
CZ-2D R/B 4.4 21:01:46 10° S 21:05:28 43° W 21:09:11 10° NNW
Cosmos 1420 Rocket 3.9 21:01:53 10° SSW 21:07:02 81° ESE 21:12:14 10° NNE
Meteor 2-4 Rocket 4.1 21:05:23 10° N 21:10:42 45° ENE 21:14:13 21° SE
Cosmos 407 Rocket 4.4 21:06:18 10° NNW 21:11:26 48° WSW 21:16:30 10° S
NOSS 2-3 (E) 3.8 21:07:35 10° SSW 21:12:04 57° ESE 21:17:07 10° NE
Helios 1A 3.4 21:11:48 25° SE 21:13:52 45° ENE 21:17:56 10° N
Atlas Centaur 2 3.0 21:06:32 10° WSW 21:14:24 54° S 21:18:36 24° ESE
Cosmos 44 Rocket 3.3 21:13:23 10° NNW 21:18:09 80° WSW 21:21:13 22° SSE
CZ-4B DEB 4.4 21:20:20 25° S 21:22:18 86° WSW 21:25:51 10° NNW
BREEZE-M DEB (TANK) 4.1 21:27:57 10° W 21:30:45 21° NW 21:32:32 10° NNE
DELTA 2 R/B (1) 3.6 21:29:29 10° WNW 21:35:05 73° SSW 21:37:20 37° SE
SeaSat 1 4.0 21:33:06 10° N 21:37:38 37° WNW 21:42:08 10° SW
Meteor 1-11 Rocket 4.1 21:32:45 10° SSW 21:38:36 68° W 21:44:21 10° N
Delta 2 Rocket 4.1 21:38:15 10° SW 21:41:55 39° S 21:41:55 39° S
NOSS 2-3 (C) 4.1 21:41:05 10° SW 21:45:41 70° NW 21:50:57 10° NNE
Cosmos 1140 Rocket 4.2 21:41:37 10° NNW 21:46:41 51° WSW 21:50:02 20° S
SPOT 5 3.8 21:46:37 32° ENE 21:46:44 32° ENE 21:50:57 10° N
MetOp-A 4.3 21:46:00 43° ESE 21:47:21 54° ENE 21:52:34 10° N
SAR-Lupe-4 3.8 21:52:24 61° NNE 21:52:24 61° NNE 21:55:33 10° N
Lacrosse 5 1.7 21:48:17 10° SW 21:53:21 81° SE 21:58:27 10° NE
Resurs 01 Rocket 4.4 21:55:01 10° SW 21:57:34 15° W 22:00:08 10° WNW
Okean 1 Rocket 3.2 21:58:31 37° SSW 22:00:08 68° W 22:04:30 10° N
Meteor 1-29 3.7 21:57:06 10° N 22:00:25 51° WNW 22:00:43 49° W
H-2A R/B 2.7 22:00:55 37° ENE 22:00:55 37° ENE 22:05:21 10° N
Cosmos 2315 Rocket 3.9 21:55:44 10° N 22:01:59 70° E 22:03:43 48° SSE
Cosmos 2266 Rocket 4.3 21:56:53 10° SSW 22:02:51 62° W 22:08:51 10° N
Okean 1-7 Rocket 3.7 22:00:33 10° N 22:04:41 64° NE 22:04:41 64° NE
ARGOS 3.1 22:04:28 59° ESE 22:05:07 64° ENE 22:10:26 10° N
Cosmos 1741 Rocket 4.2 22:01:35 10° NNW 22:06:47 65° WSW 22:08:13 46° SSW
Cosmos 2322 Rocket 3.5 22:01:38 10° SW 22:06:58 40° WNW 22:12:19 10° N
ERS-1 Rocket 2.9 22:06:15 59° S 22:07:13 85° WSW 22:12:16 10° NNW
Cosmos 1607 4.0 22:00:58 10° NNW 22:07:25 68° ENE 22:08:50 53° ESE
Nadezhda 2 Rocket 4.3 22:05:18 38° S 22:07:49 82° E 22:14:03 10° N
Meteor 1-23 Rocket 4.2 22:03:16 10° NNW 22:08:49 75° W 22:10:35 45° S
Cosmos 2263 Rocket 2.1 22:05:05 10° NNW 22:10:48 83° WSW 22:11:56 59° S
Tiangong 1 3.7 22:09:36 10° NW 22:10:33 18° NW 22:10:33 18° NW
Helios 1B rocket 4.2 22:10:58 10° N 22:14:36 31° WNW 22:18:04 11° SW
Lacrosse 5 rocket 3.0 22:13:06 10° WNW 22:15:50 24° WSW 22:15:50 24° WSW
SL-16 R/B 3.8 22:11:58 10° SW 22:17:02 33° WNW 22:22:08 10° N
Cosmos 1844 Rocket 4.1 22:14:27 10° N 22:18:48 24° NE 22:18:48 24° NE
Cosmos 1025 Rocket 3.3 22:15:41 10° N 22:19:22 63° NW 22:19:22 63° NW
ATLAS 3B R/B 2.9 22:16:37 10° NNW 22:23:05 48° NE 22:23:52 46° ENE
Cosmos 2322 3.6 22:24:05 65° SSW 22:24:59 90° NW 22:30:41 10° NNE
USA 245 3.9 22:27:23 86° W 22:27:23 86° W 22:32:07 10° NNW
Cosmos 2219 Rocket 4.4 22:32:43 13° NE 22:32:43 13° NE 22:33:25 10° NE
COSMOS 2428 3.8 22:35:04 32° NE 22:35:04 32° NE 22:38:14 10° NNE
Nimbus 7 Rocket 4.3 22:27:45 10° NNE 22:33:07 68° ENE 22:33:07 68° ENE
Cosmos 2360 Rocket 2.9 22:37:59 21° SW 22:41:34 52° WNW 22:47:04 10° NNE
Cosmos 1932 4.4 22:36:20 10° NNW 22:42:48 77° WSW 22:43:03 76° SW
Terra 3.3 22:45:43 29° NNE 22:45:43 29° NNE 22:48:18 10° N
Cosmos 2333 Rocket 4.4 22:50:50 13° NE 22:50:50 13° NE 22:51:31 10° NE
ATLAS 2AS CENTAUR R/B 3.9 22:44:38 10° WSW 22:51:58 47° NW 22:59:44 10° NNE
SPOT 1/Viking Rocket 4.3 23:02:52 50° NW 23:02:52 50° NW 23:07:01 10° NNW
Atlas Centaur 2 3.7 22:56:42 10° W 23:01:14 31° SW 23:01:14 31° SW
Nadezhda 1 Rocket 4.4 23:18:26 10° N 23:23:30 59° NNW 23:23:30 59° NNW
Lacrosse 5 4.3 23:33:10 10° W 23:36:52 20° NNW 23:40:34 10° NNE
H-2A R/B 4.1 23:41:34 20° WNW 23:41:34 20° WNW 23:44:08 10° NW
NOSS 3-2 (A) 4.2 23:43:54 10° NNW 23:50:24 68° NNW 23:50:24 68° NNW
Cosmos 2278 Rocket 3.8 23:46:39 10° NNW 23:49:36 30° N 23:49:36 30° N
